TimeEDT,TemperatureF,Dew PointF,Humidity,Sea Level PressureIn,VisibilityMPH,Wind Direction,Wind SpeedMPH,Gust SpeedMPH,PrecipitationIn,Events,Conditions,WindDirDegrees,DateUTC
12:53 AM,55.0,44.1,67,30.28,10.0,Calm,Calm,-,N/A,,Clear,0,2013-03-30 04:53:00
1:53 AM,54.0,45.0,72,30.27,10.0,Calm,Calm,-,N/A,,Clear,0,2013-03-30 05:53:00
2:53 AM,52.0,46.9,83,30.27,10.0,Calm,Calm,-,N/A,,Clear,0,2013-03-30 06:53:00
3:53 AM,52.0,48.9,89,30.26,10.0,Calm,Calm,-,N/A,,Clear,0,2013-03-30 07:53:00
4:53 AM,50.0,46.9,89,30.25,10.0,NNE,3.5,-,N/A,,Unknown,30,2013-03-30 08:53:00
5:53 AM,51.1,45.0,80,30.24,10.0,ENE,3.5,-,N/A,,Clear,60,2013-03-30 09:53:00
6:53 AM,50.0,44.1,80,30.25,10.0,Calm,Calm,-,N/A,,Clear,0,2013-03-30 10:53:00
7:53 AM,51.1,46.0,83,30.27,10.0,Calm,Calm,-,N/A,,Clear,0,2013-03-30 11:53:00
8:53 AM,57.9,48.9,72,30.28,10.0,ESE,4.6,-,N/A,,Clear,120,2013-03-30 12:53:00
9:53 AM,64.9,50.0,58,30.29,10.0,South,6.9,-,N/A,,Clear,190,2013-03-30 13:53:00
10:53 AM,69.1,48.9,49,30.29,10.0,South,6.9,-,N/A,,Clear,180,2013-03-30 14:53:00
11:53 AM,72.0,46.0,40,30.27,10.0,South,9.2,-,N/A,,Clear,170,2013-03-30 15:53:00
12:53 PM,75.0,45.0,34,30.25,10.0,South,11.5,-,N/A,,Clear,170,2013-03-30 16:53:00
1:53 PM,73.0,44.1,35,30.22,10.0,SSE,8.1,-,N/A,,Scattered Clouds,160,2013-03-30 17:53:00
2:53 PM,77.0,45.0,32,30.19,10.0,West,11.5,-,N/A,,Partly Cloudy,270,2013-03-30 18:53:00
3:53 PM,78.1,44.1,30,30.17,10.0,South,9.2,-,N/A,,Scattered Clouds,180,2013-03-30 19:53:00
4:53 PM,77.0,45.0,32,30.15,10.0,WSW,9.2,-,N/A,,Partly Cloudy,250,2013-03-30 20:53:00
5:53 PM,77.0,46.0,33,30.14,10.0,WSW,8.1,-,N/A,,Clear,240,2013-03-30 21:53:00
6:53 PM,73.9,46.0,37,30.15,10.0,West,10.4,-,N/A,,Clear,280,2013-03-30 22:53:00
7:53 PM,71.1,46.0,41,30.17,10.0,West,9.2,-,N/A,,Clear,270,2013-03-30 23:53:00
8:53 PM,66.9,46.9,49,30.19,10.0,WSW,6.9,-,N/A,,Clear,240,2013-03-31 00:53:00
9:53 PM,64.9,46.9,52,30.20,10.0,WSW,3.5,-,N/A,,Clear,250,2013-03-31 01:53:00
10:53 PM,63.0,48.0,58,30.21,10.0,North,3.5,-,N/A,,Clear,350,2013-03-31 02:53:00
11:53 PM,62.1,51.1,67,30.20,10.0,East,3.5,-,N/A,,Clear,100,2013-03-31 03:53:00